Location: Fauquembergues
(50.6005°N, 2.0987°E)
Time: 04:17:16
(UTC+00:00)

Meteor 2-20 Rocket - Pass Details

Date: 14 July 2020
Orbit: 941 x 958 km, 82.5° (Epoch: 06 August)

Event Time Altitude Azimuth Distance (km) Brightness Sun altitude
Rises 00:18:25 0° 348° (NNW) 3,642 8.9 -17.6°
Reaches altitude 10° 00:20:55 10° 346° (NNW) 2,694 7.9 -17.6°
Maximum altitude 00:27:03 71° 264° (W) 1,010 4.5 -17.5°
Enters shadow 00:30:28 28° 187° (S) 1,722 5.2 -17.4°
